Location: McCloud Nature Park
(39.8272°N, 86.6824°W)
Time: 04:23:55
(UTC-05:00)

Amateur Radio Satellites - All Passes

Search period start: 25 May 2015 03:53
Search period end: 26 May 2015 03:53
Location: McCloud Nature Park, 39.8272°N, 86.6824°W

Satellite Date Start Highest point End Downlink Frequencies (MHz)
Time Altitude Azimuth
KKS-1 25 May 03:56:43 04:00:01 19° 268° (W) 04:03:12 437.445
BEESAT 2 25 May 04:14:34 04:18:33 49° 243° (WSW) 04:22:26 435.950
JAS-2 25 May 04:19:49 04:24:49 48° 99° (E) 04:29:57 435.910
Cosmos 2499 25 May 04:23:26 04:28:24 20° 276° (W) 04:33:05 435.465 / 435.565
SO-50 25 May 04:26:30 04:31:05 50° 307° (NW) 04:35:49 436.795
ITAMSAT 1 25 May 04:30:45 04:34:48 23° 294° (WNW) 04:38:43 435.822/435.867
VERMONT LUNAR 25 May 04:37:29 04:40:42 82° 353° (N) 04:43:55 437.305
PHONESAT 2.4 25 May 04:39:08 04:42:33 56° 162° (SSE) 04:45:57 2401.200-2431.200
HORYU 2 25 May 04:39:25 04:43:53 88° 281° (W) 04:48:18 437.375
ISS 25 May 04:49:11 04:50:50 13° 13° (NNE) 04:52:32 145.825
Gurwin Techsat 1B 25 May 04:56:24 04:59:26 15° 298° (WNW) 05:02:15 435.225
CUBESAT XI-V 25 May 05:06:00 05:08:21 14° 65° (ENE) 05:10:55 437.345
MOZHAYETS 4 25 May 05:08:23 05:12:46 43° 262° (W) 05:17:07
BEESAT 3 25 May 05:09:20 05:10:21 11° 251° (WSW) 05:11:07 437.485
Cosmos 2491 25 May 05:14:23 05:19:54 18° 61° (ENE) 05:25:51 435.465 / 435.565
AO-7 25 May 05:14:29 05:22:54 88° 290° (WNW) 05:31:18 29.400- 29.500
AIST 2 25 May 05:28:31 05:32:12 29° 246° (WSW) 05:35:47 435.215
STRAND 1 25 May 05:31:49 05:34:05 13° 62° (ENE) 05:36:36 437.568
PRISM 25 May 05:48:54 05:51:30 17° 67° (ENE) 05:54:14 437.425
JAS-2 25 May 06:06:02 06:09:42 19° 295° (WNW) 06:13:12 435.910
YUBILEINY 25 May 06:08:46 06:13:04 16° 79° (E) 06:17:57 435.215
M-CUBED/EXP-1 PRIME 25 May 06:13:54 06:17:25 26° 66° (ENE) 06:20:47 437.505
VERMONT LUNAR 25 May 06:14:45 06:17:57 87° 196° (SSW) 06:21:10 437.305
PHONESAT 2.4 25 May 06:17:10 06:20:39 78° 358° (N) 06:24:07 2401.200-2431.200
AUBIESAT-1 25 May 06:24:01 06:27:39 28° 67° (ENE) 06:31:05 437.475
ISS 25 May 06:24:47 06:27:56 43° 32° (NNE) 06:31:04 145.825
CUTE-I 25 May 06:26:40 06:31:22 31° 96° (E) 06:36:07 437.470
CUBESAT XI-V 25 May 06:40:50 06:45:22 58° 260° (W) 06:49:56 437.345
Cubesat XI-IV 25 May 06:46:17 06:51:27 48° 99° (E) 06:56:38 437.490
STRAND 1 25 May 07:07:38 07:12:43 76° 257° (WSW) 07:17:50 437.568
AO-7 25 May 07:08:53 07:14:45 21° 306° (NW) 07:20:16 29.400- 29.500
Cosmos 2491 25 May 07:09:22 07:18:16 89° 80° (E) 07:27:05 435.465 / 435.565
PRISM 25 May 07:22:54 07:26:42 37° 262° (W) 07:30:31 437.425
AIST 1 25 May 07:31:40 07:35:28 29° 75° (ENE) 07:39:20
BRITE-PL 25 May 07:43:36 07:47:21 18° 88° (E) 07:51:11 437.365/2234.400
M-CUBED/EXP-1 PRIME 25 May 07:48:30 07:52:12 26° 259° (WSW) 07:55:38 437.505
VERMONT LUNAR 25 May 07:52:11 07:54:58 27° 206° (SSW) 07:57:43 437.305
PHONESAT 2.4 25 May 07:55:20 07:58:47 70° 196° (SSW) 08:02:14 2401.200-2431.200
GOMX 1 25 May 07:57:29 08:00:17 15° 87° (E) 08:03:17 467.674
AUBIESAT-1 25 May 07:58:56 08:02:24 23° 259° (W) 08:05:36 437.475
YUBILEINY 25 May 07:59:59 08:08:45 85° 96° (E) 08:17:33 435.215
ISS 25 May 08:01:42 08:04:10 19° 228° (SW) 08:06:34 145.825
HO-68 25 May 08:04:39 08:08:27 16° 88° (E) 08:12:41 435.675
CUTE-I 25 May 08:06:39 08:11:26 33° 292° (WNW) 08:16:09 437.470
Cubesat XI-IV 25 May 08:27:09 08:31:17 22° 295° (WNW) 08:35:15 437.490
Cosmos 2504 25 May 08:41:26 08:44:56 14° 81° (E) 08:48:56 435.465 / 435.565
RS-15 25 May 08:43:19 08:53:23 48° 111° (ESE) 09:03:48 29.354- 29.394
CANX-2 25 May 08:52:12 08:55:54 30° 96° (E) 08:59:37 2200.000
CUTE 1.7 + AOD 2 25 May 08:56:05 08:59:46 29° 96° (E) 09:03:29 437.475
CINEMA 3 25 May 09:00:35 09:03:40 18° 90° (E) 09:06:49 145.822/145.860
PCSat 25 May 09:05:43 09:08:49 16° 41° (NE) 09:12:06 145.827
DOVE 4 25 May 09:06:34 09:11:30 44° 97° (E) 09:16:11 437.250
Cosmos 2491 25 May 09:08:37 09:14:03 17° 281° (W) 09:18:58 435.465 / 435.565
AIST 1 25 May 09:09:35 09:13:00 22° 271° (W) 09:16:20
UNISAT 6 25 May 09:19:38 09:22:07 15° 65° (ENE) 09:24:47 437.425
BRITE-PL 25 May 09:20:43 09:26:20 59° 287° (WNW) 09:31:41 437.365/2234.400
SEEDS 25 May 09:21:37 09:25:40 48° 98° (E) 09:29:43 437.485
UWE-3 25 May 09:22:47 09:23:19 10° 87° (E) 09:24:08 435.000/436.395/437.385
GOMX 1 25 May 09:33:38 09:39:02 67° 286° (WNW) 09:44:08 467.674
PHONESAT 2.4 25 May 09:33:58 09:36:36 20° 210° (SSW) 09:39:11 2401.200-2431.200
FUNcube-1 25 May 09:37:25 09:38:50 12° 88° (E) 09:40:29 145.935
COMPASS 1 25 May 09:38:04 09:42:11 60° 101° (E) 09:46:15 437.405
QB50P1 25 May 09:46:56 09:48:10 11° 64° (ENE) 09:49:38 145.935-145.965
POLYITAN 1 25 May 09:47:32 09:49:02 12° 64° (ENE) 09:50:45 437.675
HO-68 25 May 09:49:59 09:57:12 87° 287° (WNW) 10:04:21 435.675
AAUSAT CUBESAT 2 25 May 09:51:54 09:56:03 75° 101° (ESE) 10:00:10 437.432
YUBILEINY 25 May 10:00:39 10:06:54 20° 298° (WNW) 10:12:42 435.215
ANTELSAT 25 May 10:00:49 10:05:08 38° 71° (ENE) 10:09:28 437.575/2403.000
CUBEBUG 2 25 May 10:04:39 10:08:53 41° 97° (E) 10:12:59 437.445
ZACube-1 25 May 10:15:06 10:19:02 33° 96° (E) 10:22:52 437.345
NANOSAT C BR1 25 May 10:16:41 10:20:03 24° 69° (ENE) 10:23:31 145.865
UKube-1 25 May 10:21:54 10:24:40 17° 92° (E) 10:27:34 .
QB50P2 25 May 10:22:54 10:26:33 28° 70° (ENE) 10:30:17 145.880/145.840
HUMSAT D 25 May 10:25:56 10:28:52 19° 92° (E) 10:31:52 437.325/437.525
DX 1 25 May 10:27:18 10:30:37 21° 93° (E) 10:34:01 434.975-435.025
CANX-2 25 May 10:28:25 10:31:42 22° 291° (WNW) 10:34:52 2200.000
Cosmos 2504 25 May 10:28:58 10:37:26 82° 95° (E) 10:45:20 435.465 / 435.565
Oscar 11 25 May 10:31:50 10:36:10 86° 284° (WNW) 10:40:28 145.826/435.025
CUTE 1.7 + AOD 2 25 May 10:32:16 10:35:33 22° 291° (WNW) 10:38:44 437.475
DELFI C3 25 May 10:32:21 10:36:21 71° 101° (E) 10:40:21 145.870
TIGRISAT 25 May 10:34:08 10:38:51 83° 74° (ENE) 10:43:33 435.000
VELOX 1 25 May 10:35:01 10:36:51 13° 89° (E) 10:38:55 145.980
POPSAT HIP 1 25 May 10:35:21 10:39:17 38° 72° (ENE) 10:43:18 437.405
CINEMA 3 25 May 10:36:38 10:41:12 44° 288° (WNW) 10:45:30 145.822/145.860
DUCHIFAT 1 25 May 10:38:52 10:42:50 40° 72° (ENE) 10:46:53 145.980
DOVE 4 25 May 10:45:00 10:48:55 22° 294° (WNW) 10:52:35 437.250
PCSat 25 May 10:47:38 10:53:06 89° 57° (ENE) 10:58:31 145.827
UNISAT 6 25 May 10:53:49 10:58:28 60° 259° (W) 11:03:06 437.425
RS-15 25 May 10:55:11 11:05:46 51° 314° (NW) 11:16:36 29.354- 29.394
UWE-3 25 May 10:56:02 11:00:27 65° 285° (WNW) 11:04:41 435.000/436.395/437.385
SEEDS 25 May 10:58:50 11:01:07 14° 294° (WNW) 11:03:14 437.485
AISAT 25 May 11:04:20 11:08:11 28° 95° (E) 11:12:04 437.250
BUGSAT 1 25 May 11:10:32 11:14:37 64° 75° (ENE) 11:18:47 437.445
FUNcube-1 25 May 11:11:23 11:15:39 56° 286° (WNW) 11:19:48 145.935
COMPASS 1 25 May 11:15:55 11:17:24 11° 295° (WNW) 11:18:40 437.405
SO-50 25 May 11:19:01 11:22:26 19° 41° (NE) 11:25:57 436.795
QB50P1 25 May 11:19:17 11:23:32 66° 259° (W) 11:27:50 145.935-145.965
POLYITAN 1 25 May 11:20:12 11:24:28 64° 259° (W) 11:28:46 437.675
ANTELSAT 25 May 11:38:26 11:42:03 21° 267° (W) 11:45:32 437.575/2403.000
HO-68 25 May 11:39:37 11:44:03 17° 304° (NW) 11:48:09 435.675
CUBEBUG 2 25 May 11:42:10 11:45:16 18° 294° (WNW) 11:48:10 437.445
50 SAT 25 May 11:48:08 11:52:03 80° 283° (WNW) 11:55:53 437.505
ZACube-1 25 May 11:51:54 11:55:12 21° 292° (WNW) 11:58:20 437.345
NANOSAT C BR1 25 May 11:52:03 11:55:47 28° 265° (W) 11:59:29 145.865
CUSAT 1 25 May 11:52:15 11:56:43 18° 81° (E) 12:01:58 437.405
UKube-1 25 May 11:56:55 12:01:01 41° 288° (WNW) 12:05:05 .
QB50P2 25 May 11:58:57 12:02:28 23° 266° (W) 12:05:53 145.880/145.840
HUMSAT D 25 May 12:00:58 12:04:44 32° 289° (WNW) 12:08:24 437.325/437.525
DX 1 25 May 12:02:59 12:06:57 33° 290° (WNW) 12:10:52 434.975-435.025
ESTCUBE 1 25 May 12:04:42 12:09:15 74° 102° (ESE) 12:13:46 437.505/2401.250
VELOX 1 25 May 12:09:25 12:13:51 58° 286° (WNW) 12:18:14 145.980
POPSAT HIP 1 25 May 12:12:21 12:15:20 18° 268° (W) 12:18:12 437.405
CUBEBUG 1 25 May 12:13:00 12:17:29 80° 103° (ESE) 12:21:55 437.445
DUCHIFAT 1 25 May 12:16:04 12:18:52 16° 269° (W) 12:21:32 145.980
Oscar 19 25 May 12:20:04 12:23:49 21° 65° (ENE) 12:27:43 437.125/150
Cosmos 2504 25 May 12:25:59 12:31:48 20° 295° (WNW) 12:37:02 435.465 / 435.565
GONETS M04 25 May 12:29:56 12:37:12 31° 85° (E) 12:44:44
PCSat 25 May 12:34:15 12:35:50 11° 256° (WSW) 12:37:03 145.827
AISAT 25 May 12:40:54 12:44:42 26° 291° (WNW) 12:48:24 437.250
DANDE 25 May 12:48:32 12:54:42 37° 87° (E) 13:02:07 436.750
Gurwin Techsat 1B 25 May 12:58:30 13:00:57 14° 62° (ENE) 13:03:40 435.225
SO-50 25 May 12:58:35 13:03:32 70° 241° (WSW) 13:08:23 436.795
SPROUT 25 May 12:59:05 13:03:26 71° 101° (ESE) 13:07:44 437.525
RS-15 25 May 13:13:50 13:21:49 21° 345° (NNW) 13:29:49 29.354- 29.394
TISAT 1 25 May 13:29:38 13:33:55 71° 285° (WNW) 13:38:09 437.305
ITUPSAT 1 25 May 13:30:16 13:33:17 17° 91° (E) 13:36:28 437.325
CUSAT 1 25 May 13:31:11 13:38:18 87° 279° (W) 13:46:38 437.405
BEESAT 25 May 13:38:43 13:42:17 21° 93° (E) 13:45:58 436.000
ESTCUBE 1 25 May 13:44:05 13:45:35 11° 297° (WNW) 13:46:50 437.505/2401.250
SWISSCUBE 25 May 13:46:33 13:50:37 28° 95° (E) 13:54:44 437.505
CUBEBUG 1 25 May 13:52:42 13:53:15 10° 297° (WNW) 13:53:34 437.445
Oscar 19 25 May 13:57:51 14:02:52 48° 261° (W) 14:07:53 437.125/150
ITAMSAT 1 25 May 14:07:46 14:12:51 63° 73° (ENE) 14:17:59 435.822/435.867
AO-7 25 May 14:22:10 14:28:32 26° 57° (ENE) 14:35:09 29.400- 29.500
GONETS M04 25 May 14:25:01 14:33:40 56° 284° (WNW) 14:42:20
DANDE 25 May 14:31:07 14:37:47 45° 289° (WNW) 14:45:41 436.750
JAS-2 25 May 14:31:49 14:36:43 23° 66° (ENE) 14:41:24 435.910
Gurwin Techsat 1B 25 May 14:35:02 14:40:20 79° 256° (WSW) 14:45:41 435.225
SPROUT 25 May 14:37:47 14:38:59 11° 296° (WNW) 14:39:56 437.525
Cosmos 2499 25 May 15:03:33 15:11:30 56° 92° (E) 15:18:56 435.465 / 435.565
ITUPSAT 1 25 May 15:06:52 15:11:29 48° 288° (WNW) 15:16:05 437.325
BEESAT 25 May 15:15:52 15:20:18 38° 289° (WNW) 15:24:40 436.000
CUSAT 1 25 May 15:17:09 15:22:27 19° 302° (WNW) 15:27:45 437.405
STARS 25 May 15:19:39 15:23:20 26° 95° (E) 15:27:04 437.465
SWISSCUBE 25 May 15:24:18 15:28:27 30° 291° (WNW) 15:32:33 437.505
RS-15 25 May 15:31:27 15:39:50 23° 20° (NNE) 15:48:43 29.354- 29.394
HORYU 2 25 May 15:36:38 15:41:08 78° 76° (ENE) 15:45:38 437.375
KKS-1 25 May 15:47:01 15:51:32 87° 101° (E) 15:56:00 437.445
ITAMSAT 1 25 May 15:49:55 15:52:53 15° 271° (W) 15:55:36 435.822/435.867
O/OREOS (USA 219) 25 May 16:03:34 16:08:05 76° 110° (ESE) 16:12:36 437.305
AO-7 25 May 16:12:24 16:20:41 73° 255° (WSW) 16:29:01 29.400- 29.500
JAS-2 25 May 16:14:46 16:21:34 59° 259° (W) 16:27:34 435.910
STARS 25 May 16:55:58 16:59:46 27° 291° (WNW) 17:03:28 437.465
Cosmos 2499 25 May 16:58:10 17:05:03 28° 290° (WNW) 17:11:21 435.465 / 435.565
MOZHAYETS 4 25 May 17:04:01 17:08:24 45° 98° (E) 17:12:48
BEESAT 3 25 May 17:22:46 17:24:47 14° 110° (ESE) 17:26:59 437.485
RS-15 25 May 17:44:14 17:55:36 58° 49° (NE) 18:07:29 29.354- 29.394
O/OREOS (USA 219) 25 May 17:46:18 17:48:08 12° 309° (NW) 17:49:46 437.305
CUTE-I 25 May 17:47:44 17:52:46 47° 71° (ENE) 17:57:53 437.470
BEESAT 2 25 May 18:07:27 18:11:10 35° 115° (ESE) 18:14:58 435.950
Cubesat XI-IV 25 May 18:07:34 18:12:51 73° 74° (ENE) 18:18:11 437.490
YUBILEINY 25 May 18:11:27 18:19:28 40° 72° (ENE) 18:27:33 435.215
AO-7 25 May 18:11:47 18:15:08 12° 275° (W) 18:17:45 29.400- 29.500
Cosmos 2491 25 May 18:15:57 18:21:45 21° 81° (E) 18:28:01 435.465 / 435.565
HO-68 25 May 18:35:06 18:37:41 13° 53° (NE) 18:40:39 435.675
CUBESAT XI-V 25 May 18:38:17 18:42:38 37° 97° (E) 18:47:00 437.345
MOZHAYETS 4 25 May 18:42:15 18:45:19 17° 293° (WNW) 18:48:14
BRITE-PL 25 May 18:53:47 18:57:12 19° 64° (ENE) 19:00:56 437.365/2234.400
BEESAT 3 25 May 18:58:24 19:02:23 51° 305° (NW) 19:06:24 437.485
GOMX 1 25 May 19:04:51 19:07:45 16° 63° (ENE) 19:10:56 467.674
PRISM 25 May 19:05:50 19:09:27 29° 96° (E) 19:13:08 437.425
STRAND 1 25 May 19:19:04 19:23:51 38° 97° (E) 19:28:39 437.568
AIST 2 25 May 19:24:50 19:29:03 69° 119° (ESE) 19:33:20 435.215
CUTE-I 25 May 19:29:08 19:33:09 21° 268° (W) 19:37:01 437.470
M-CUBED/EXP-1 PRIME 25 May 19:30:50 19:32:55 16° 99° (E) 19:35:06 437.505
AUBIESAT-1 25 May 19:40:16 19:42:35 18° 99° (E) 19:45:00 437.475
CANX-2 25 May 19:44:57 19:48:06 21° 69° (ENE) 19:51:20 2200.000
BEESAT 2 25 May 19:46:01 19:49:21 23° 313° (NW) 19:52:41 435.950
CUTE 1.7 + AOD 2 25 May 19:48:45 19:51:53 21° 69° (ENE) 19:55:07 437.475
Cubesat XI-IV 25 May 19:51:01 19:53:37 13° 272° (W) 19:55:54 437.490
RS-15 25 May 19:57:03 20:07:55 44° 250° (WSW) 20:18:55 29.354- 29.394
AIST 1 25 May 20:01:25 20:04:11 18° 88° (E) 20:07:06
CINEMA 3 25 May 20:01:31 20:04:41 18° 65° (ENE) 20:08:04 145.822/145.860
YUBILEINY 25 May 20:08:18 20:16:22 43° 272° (W) 20:24:17 435.215
Cosmos 2491 25 May 20:08:56 20:17:44 78° 279° (W) 20:26:38 435.465 / 435.565
DOVE 4 25 May 20:10:42 20:15:27 42° 72° (ENE) 20:20:26 437.250
SEEDS 25 May 20:13:06 20:16:47 31° 71° (ENE) 20:20:33 437.485
CUBESAT XI-V 25 May 20:16:13 20:19:53 22° 292° (WNW) 20:23:26 437.345
HO-68 25 May 20:17:09 20:24:14 66° 71° (ENE) 20:31:22 435.675
Cosmos 2504 25 May 20:23:30 20:29:08 25° 68° (ENE) 20:34:57 435.465 / 435.565
COMPASS 1 25 May 20:28:34 20:32:24 37° 72° (ENE) 20:36:17 437.405
BRITE-PL 25 May 20:30:18 20:35:12 56° 261° (W) 20:40:32 437.365/2234.400
FUNcube-1 25 May 20:33:41 20:34:27 10° 63° (ENE) 20:35:28 145.935
GOMX 1 25 May 20:40:12 20:45:15 70° 260° (W) 20:50:38 467.674
PRISM 25 May 20:41:32 20:44:47 22° 291° (WNW) 20:47:56 437.425
AAUSAT CUBESAT 2 25 May 20:41:50 20:45:48 44° 73° (ENE) 20:49:48 437.432
STRAND 1 25 May 20:58:41 21:02:53 25° 293° (WNW) 21:06:58 437.568
CUBEBUG 2 25 May 21:01:43 21:05:59 34° 71° (ENE) 21:10:18 437.445
M-CUBED/EXP-1 PRIME 25 May 21:05:09 21:07:52 23° 294° (WNW) 21:10:31 437.505
AIST 2 25 May 21:05:34 21:08:08 15° 318° (NW) 21:10:35 435.215
ZACube-1 25 May 21:10:16 21:14:02 26° 70° (ENE) 21:17:54 437.345
AUBIESAT-1 25 May 21:14:49 21:17:24 21° 295° (WNW) 21:19:55 437.475
UKube-1 25 May 21:16:56 21:19:08 14° 65° (ENE) 21:21:31 .
HUMSAT D 25 May 21:17:56 21:20:07 14° 66° (ENE) 21:22:28 437.325/437.525
DELFI C3 25 May 21:18:59 21:22:42 37° 73° (ENE) 21:26:27 145.870
CANX-2 25 May 21:19:59 21:23:52 32° 264° (W) 21:27:41 2200.000
DX 1 25 May 21:22:49 21:25:40 18° 66° (ENE) 21:28:41 434.975-435.025
CUTE 1.7 + AOD 2 25 May 21:23:46 21:27:38 32° 264° (W) 21:31:28 437.475
Oscar 11 25 May 21:25:35 21:29:52 66° 75° (ENE) 21:34:11 145.826/435.025
VELOX 1 25 May 21:33:07 21:34:22 11° 63° (ENE) 21:35:53 145.980
CINEMA 3 25 May 21:36:35 21:41:28 56° 261° (W) 21:46:26 145.822/145.860
AIST 1 25 May 21:37:42 21:41:35 34° 284° (WNW) 21:45:30
DOVE 4 25 May 21:49:20 21:53:24 23° 269° (W) 21:57:27 437.250
SEEDS 25 May 21:49:24 21:52:40 21° 267° (W) 21:55:49 437.485
UWE-3 25 May 21:51:37 21:56:19 89° 257° (WSW) 22:01:02 435.000/436.395/437.385
AISAT 25 May 22:01:44 22:05:14 24° 68° (ENE) 22:08:51 437.250
COMPASS 1 25 May 22:05:23 22:08:15 17° 268° (W) 22:10:58 437.405
FUNcube-1 25 May 22:05:35 22:10:11 82° 258° (WSW) 22:14:47 145.935
HO-68 25 May 22:07:03 22:12:34 22° 269° (W) 22:17:51 435.675
Cosmos 2491 25 May 22:11:22 22:16:27 15° 302° (WNW) 22:20:59 435.465 / 435.565
Cosmos 2504 25 May 22:16:02 22:23:03 55° 268° (W) 22:30:00 435.465 / 435.565
AAUSAT CUBESAT 2 25 May 22:19:22 22:21:42 14° 270° (W) 22:23:50 437.432
TIGRISAT 25 May 22:28:05 22:30:55 17° 91° (E) 22:33:50 435.000
50 SAT 25 May 22:31:46 22:35:39 50° 74° (ENE) 22:39:32 437.505
CUSAT 1 25 May 22:32:15 22:35:07 13° 53° (NE) 22:38:10 437.405
CUBEBUG 2 25 May 22:38:48 22:42:43 24° 267° (W) 22:46:33 437.445
GONETS M04 25 May 22:42:04 22:45:58 14° 57° (ENE) 22:50:28
ZACube-1 25 May 22:46:16 22:50:19 29° 265° (W) 22:54:19 437.345
UNISAT 6 25 May 22:47:10 22:50:59 29° 95° (E) 22:54:45 437.425
UKube-1 25 May 22:50:39 22:54:52 52° 260° (W) 22:59:08 .
HUMSAT D 25 May 22:51:13 22:55:28 53° 260° (W) 22:59:42 437.325/437.525
DELFI C3 25 May 22:55:29 22:58:01 16° 269° (W) 23:00:23 145.870
BUGSAT 1 25 May 22:56:48 22:57:02 10° 88° (E) 22:57:32 437.445
DX 1 25 May 22:57:31 23:01:38 41° 261° (W) 23:05:47 434.975-435.025
ESTCUBE 1 25 May 23:03:29 23:07:53 61° 74° (ENE) 23:12:20 437.505/2401.250
ISS 25 May 23:04:12 23:06:30 18° 132° (SE) 23:08:51 145.825
Oscar 11 25 May 23:05:51 23:06:35 10° 272° (W) 23:07:00 145.826/435.025
QB50P1 25 May 23:05:57 23:09:09 21° 93° (E) 23:12:26 145.935-145.965
VELOX 1 25 May 23:05:58 23:10:23 72° 258° (WSW) 23:14:51 145.980
POLYITAN 1 25 May 23:07:07 23:10:24 22° 93° (E) 23:13:46 437.675
CUBEBUG 1 25 May 23:08:15 23:12:31 59° 74° (ENE) 23:16:51 437.445
ANTELSAT 25 May 23:30:03 23:34:28 90° 293° (WNW) 23:38:46 437.575/2403.000
DANDE 25 May 23:31:55 23:38:46 31° 65° (ENE) 23:44:37 436.750
NANOSAT C BR1 25 May 23:37:07 23:41:15 46° 99° (E) 23:45:22 145.865
AISAT 25 May 23:37:44 23:41:42 31° 264° (W) 23:45:39 437.250
QB50P2 25 May 23:44:04 23:48:18 58° 100° (E) 23:52:30 145.880/145.840
PCSat 25 May 23:49:02 23:50:53 12° 104° (ESE) 23:53:04 145.827
SPROUT 25 May 23:52:20 23:56:29 48° 74° (ENE) 00:00:42 437.525
POPSAT HIP 1 25 May 23:56:38 00:00:57 80° 102° (ESE) 00:05:12 437.405
DUCHIFAT 1 25 May 23:59:41 00:03:59 85° 102° (ESE) 00:08:14 145.980
TIGRISAT 26 May 00:03:47 00:07:54 39° 288° (WNW) 00:11:53 435.000
50 SAT 26 May 00:09:10 00:10:42 12° 270° (W) 00:12:00 437.505
CUSAT 1 26 May 00:12:18 00:19:44 74° 78° (ENE) 00:25:27 437.405
TISAT 1 26 May 00:20:42 00:24:55 76° 76° (ENE) 00:29:12 437.305
UNISAT 6 26 May 00:24:05 00:27:39 24° 292° (WNW) 00:31:04 437.425
BUGSAT 1 26 May 00:28:46 00:33:01 65° 285° (WNW) 00:37:13 437.445
GONETS M04 26 May 00:36:00 00:44:49 73° 80° (E) 00:53:32
ITUPSAT 1 26 May 00:36:40 00:39:55 19° 66° (ENE) 00:43:19 437.325
O/OREOS (USA 219) 26 May 00:36:43 00:38:51 13° 52° (NE) 00:41:10 437.305
ISS 26 May 00:39:34 00:42:42 45° 327° (NNW) 00:45:51 145.825
QB50P1 26 May 00:41:15 00:45:05 32° 289° (WNW) 00:48:51 145.935-145.965
POLYITAN 1 26 May 00:42:34 00:46:22 30° 290° (WNW) 00:50:04 437.675
ESTCUBE 1 26 May 00:43:31 00:45:16 12° 272° (W) 00:46:44 437.505/2401.250
BEESAT 26 May 00:44:43 00:48:23 23° 67° (ENE) 00:52:11 436.000
CUBEBUG 1 26 May 00:47:44 00:49:21 12° 272° (W) 00:50:44 437.445
SWISSCUBE 26 May 00:52:32 00:56:37 30° 69° (ENE) 01:00:47 437.505
Cosmos 2499 26 May 00:57:20 01:01:02 15° 62° (ENE) 01:05:08 435.465 / 435.565
NANOSAT C BR1 26 May 01:14:09 01:16:45 15° 294° (WNW) 01:19:10 145.865
DANDE 26 May 01:14:52 01:22:28 50° 269° (W) 01:28:29 436.750
QB50P2 26 May 01:21:48 01:23:45 13° 295° (WNW) 01:25:30 145.880/145.840
PCSat 26 May 01:28:15 01:33:40 84° 297° (WNW) 01:39:08 145.827
SPROUT 26 May 01:30:33 01:32:55 14° 270° (W) 01:35:06 437.525
CUSAT 1 26 May 01:56:50 02:01:18 17° 280° (W) 02:04:56 437.405
VERMONT LUNAR 26 May 02:05:31 02:08:15 26° 154° (SSE) 02:11:00 437.305
Oscar 19 26 May 02:09:58 02:15:07 64° 102° (ESE) 02:20:12 437.125/150
ITUPSAT 1 26 May 02:12:58 02:17:31 45° 261° (W) 02:22:05 437.325
O/OREOS (USA 219) 26 May 02:14:22 02:18:48 64° 251° (WSW) 02:23:12 437.305
STARS 26 May 02:16:10 02:19:33 22° 68° (ENE) 02:23:02 437.465
ISS 26 May 02:18:04 02:19:46 13° 347° (NNW) 02:21:27 145.825
PHONESAT 2.4 26 May 02:21:27 02:22:35 11° 146° (SE) 02:23:49 2401.200-2431.200
BEESAT 26 May 02:21:41 02:26:04 36° 263° (W) 02:30:26 436.000
ITAMSAT 1 26 May 02:21:59 02:26:05 24° 93° (E) 02:30:19 435.822/435.867
BEESAT 2 26 May 02:27:37 02:30:38 20° 45° (NE) 02:33:43 435.950
SWISSCUBE 26 May 02:30:25 02:34:28 27° 265° (W) 02:38:28 437.505
GONETS M04 26 May 02:34:23 02:40:54 23° 278° (W) 02:46:57
KKS-1 26 May 02:44:10 02:48:38 72° 75° (ENE) 02:53:07 437.445
Cosmos 2499 26 May 02:48:13 02:55:19 85° 264° (W) 03:02:29 435.465 / 435.565
Gurwin Techsat 1B 26 May 02:52:08 02:57:12 44° 98° (E) 03:02:16 435.225
SO-50 26 May 03:12:08 03:16:34 46° 117° (ESE) 03:21:12 436.795
PCSat 26 May 03:14:56 03:18:01 15° 319° (NW) 03:20:54 145.827
BEESAT 3 26 May 03:17:39 03:21:44 73° 59° (ENE) 03:25:44 437.485
JAS-2 26 May 03:26:28 03:29:15 15° 90° (E) 03:32:20 435.910
HORYU 2 26 May 03:30:04 03:32:36 15° 91° (E) 03:35:20 437.375
VERMONT LUNAR 26 May 03:42:02 03:45:14 85° 173° (S) 03:48:27 437.305
